Preview of NWS' New Version of Forecast
This preview is not operational and should not be used for support decisions.

Regional Weather Roundup (RWR)

Issued by National Weather Service (NWS)

                            
000
ASUS45 KABQ 242001
RWRNM 
NEW MEXICO REGIONAL WEATHER ROUNDUP
NATIONAL WEATHER SERVICE ALBUQUERQUE NM
200 PM MDT SAT AUG 24 2019

NOTE: "FAIR" MEANS FEW OR NO CLOUDS BELOW 12,000 FEET AGL WITH NO
       SIGNIFICANT WEATHER OR OBSTRUCTIONS TO VISION.

      THIS PRODUCT IS RELEASED AS TWO VERSIONS.  ONE VERSION NEAR
      THE TOP OF THE HOUR CONTAINING PRELIMINARY DATA FROM ALBUQUERQUE
      AND OTHER STATIONS.  A FINAL VERSION WITH ADDITIONAL DATA IS 
      ISSUED ABOUT 10 MINUTES AFTER THE HOUR.
 
NMZ501-503-504-510>518-242100-
NORTHWEST PLATEAU/NORTHCENTRAL MOUNTAINS
  
CITY           SKY/WX    TMP DP  RH WIND       PRES   REMARKS
FARMINGTON     FAIR      92  29  10 W15G25    30.11F                  
LOS ALAMOS       N/A     81  37  20 SE6       30.23F                  
SANTA FE       FAIR      90  33  13 SW13G22   30.16F                  
ANGEL FIRE     FAIR      75  37  25 W12G17    30.32S                  

$$
NMZ402-403-502-505>509-242100-
WESTCENTRAL MOUNTAINS/SOUTHWEST MOUNTAINS
  
CITY           SKY/WX    TMP DP  RH WIND       PRES   REMARKS
GALLUP         FAIR      90  30  11 W20G29    30.22F                  
GRANTS         FAIR      88  29  12 N7G20     30.23F                  
SILVER CITY    FAIR      88  52  28 SE12      30.17F                  

$$
NMZ407-409-411-412-242100-
SOUTHERN DESERTS
  
CITY           SKY/WX    TMP DP  RH WIND       PRES   REMARKS
DEMING         FAIR      90  53  28 VRB3      30.09F                  
LAS CRUCES     FAIR      90  48  24 CALM      30.10F                  
HOLLOMAN AFB   FAIR      91  52  26 SE3       30.07F                  
ALAMOGORDO     FAIR      91  50  24 SE8       30.07F                  
T OR C         FAIR      94  43  17 MISG      30.09F                  

$$
NMZ519>523-242100-
CENTRAL VALLEYS/CENTRAL HIGHLANDS
  
CITY           SKY/WX    TMP DP  RH WIND       PRES   REMARKS
ALBUQUERQUE    FAIR      89  39  17 CALM      30.11F                  
DOUBLE EAGLE   MOSUNNY   90  34  13 NW10      30.15F                  
CLINES CORNERS FAIR      86  34  15 W15G28    30.24F                  
BELEN          FAIR      92  34  13 SE8       30.11F                  
SOCORRO        FAIR      94  37  13 E3        30.08F                  

$$
NMZ524>526-539-540-242100-
SOUTHCENTRAL MOUNTAINS
  
CITY           SKY/WX    TMP DP  RH WIND       PRES   REMARKS
RUIDOSO        FAIR      84  36  17 NE5       30.26S                  

$$
NMZ527>531-242100-
NORTHEAST HIGHLANDS/NORTHEAST PLAINS
  
CITY           SKY/WX    TMP DP  RH WIND       PRES   REMARKS
LAS VEGAS      FAIR      86  31  13 MISG      30.17F                  
RATON          FAIR      87  39  18 S9G17     30.09F                  
CLAYTON        FAIR      84  61  45 S22G28    30.02F                  

$$
NMZ532>537-242100-
EASTCENTRAL PLAINS
  
CITY           SKY/WX    TMP DP  RH WIND       PRES   REMARKS
SANTA ROSA     FAIR      92  58  31 SE8       30.02F                  
TUCUMCARI      FAIR      91  59  33 W10       29.96F                  
CANNON AFB     FAIR      87  60  40 SW13G18   30.04F                  
CLOVIS AIRPORT FAIR      88  62  41 SW14      30.04F                  

$$
NMZ028-029-538-242100-
SOUTHEAST PLAINS
  
CITY           SKY/WX    TMP DP  RH WIND       PRES   REMARKS
ROSWELL        FAIR      96  52  22 MISG      29.97F                  
ARTESIA        FAIR      95  54  24 S8G15     30.00F                  
CARLSBAD       FAIR      93  54  26 CALM      29.96F                  
HOBBS          MOSUNNY   93  57  29 S8        30.01F                  


$$